Temperature
4 4 4 4 4 5 5 5 4 5 6 5 5 5 5 5 5 4 5 5 6 6 7 8 9 9 9 10 10 10 10 10 10 10 10 10 10 10 10 10 10 10 10 10
3 3 4 4 5 5 4 4 4 5 5 5 4 4 4 4 4 4 4 4 4 5 6 7 8 8 9 9 9 9 9 9 10 10 10 10 10 9 9 9 9 9 9 9
3 3 4 4 4 4 4 4 4 4 4 5 4 4 4 4 4 4 4 4 4 4 5 6 7 7 8 8 9 9 9 9 9 9 9 9 9 9 9 9 9 9 9 9
2 3 4 4 4 4 4 4 4 4 4 3 4 4 3 3 3 3 3 3 3 4 4 5 6 7 7 7 8 8 8 8 9 9 8 8 8 9 9 9 8 8 8 8
2 2 3 3 3 4 3 4 4 4 3 3 3 3 2 2 2 2 2 2 3 3 4 4 5 6 6 7 7 7 8 8 8 8 8 8 8 8 8 8 8 8 8 8
2 2 3 3 3 3 3 3 3 3 2 3 3 3 2 1 2 2 2 2 2 3 3 4 4 5 6 6 6 7 7 7 7 7 7 7 7 7 7 7 7 7 7 7
1 2 2 2 2 3 2 2 2 2 2 2 2 2 1 1 1 1 1 1 1 2 2 3 3 4 5 5 5 6 6 6 6 7 7 7 7 7 7 7 7 7 7 7
-0 1 1 2 2 1 2 2 2 2 2 2 2 1 0 1 1 1 1 1 1 1 1 2 3 3 4 4 4 5 5 5 6 6 6 6 6 6 6 6 6 6 7 7
-1 -0 1 1 1 1 1 1 1 1 0 1 1 -0 -0 0 -0 -0 -0 -0 -0 0 1 1 2 2 3 3 4 4 4 5 5 5 5 5 6 6 5 6 6 6 6 6
-1 -1 -0 0 1 1 1 0 0 0 1 1 1 -0 -0 -1 -1 -1 -1 -1 -1 -0 -0 0 1 1 2 2 3 3 3 4 4 4 4 4 5 5 5 5 5 5 5 5
-2 -2 -1 -1 -0 -1 -0 -0 -0 -0 0 0 -0 -0 -1 -1 -1 -1 -2 -1 -1 -1 -1 -1 -0 0 1 2 2 2 2 3 3 3 4 4 4 4 4 4 4 5 5 5
-2 -3 -3 -2 -1 -1 -1 -1 -2 -1 -1 -1 -1 -1 -1 -2 -2 -2 -2 -2 -2 -1 -1 -1 -1 -0 0 1 1 1 2 2 2 3 3 3 3 3 3 3 4 4 4 4
-2 -3 -3 -2 -1 -2 -2 -2 -2 -3 -2 -3 -2 -2 -2 -2 -2 -2 -2 -2 -2 -2 -2 -1 -1 -1 -0 -0 0 1 1 1 2 2 2 2 2 3 3 3 3 3 3 3
-2 -4 -3 -3 -3 -3 -3 -2 -3 -3 -3 -3 -3 -3 -2 -3 -3 -3 -3 -3 -3 -2 -2 -2 -2 -1 -1 -1 -1 -0 0 1 1 1 1 2 2 2 2 2 2 3 3 3
-3 -4 -4 -3 -3 -3 -3 -3 -3 -3 -4 -3 -3 -3 -3 -3 -4 -4 -4 -3 -3 -3 -3 -3 -3 -2 -2 -1 -1 -1 -0 -0 0 0 1 1 1 1 1 2 2 2 2 2
-4 -4 -4 -4 -3 -3 -3 -4 -3 -3 -4 -4 -3 -4 -4 -4 -4 -4 -4 -4 -4 -4 -4 -4 -3 -3 -3 -2 -2 -2 -1 -1 -1 -0 0 0 1 1 1 1 1 1 1 2
-5 -5 -4 -4 -4 -3 -4 -5 -5 -4 -5 -5 -4 -4 -4 -4 -4 -4 -4 -4 -4 -4 -4 -4 -4 -4 -3 -3 -3 -2 -2 -1 -1 -1 -1 -0 -0 0 0 1 1 1 1 1
-6 -5 -5 -5 -5 -5 -5 -5 -5 -5 -5 -5 -5 -5 -5 -5 -5 -4 -4 -4 -4 -4 -4 -4 -4 -4 -4 -3 -3 -3 -2 -2 -2 -1 -1 -1 -1 -1 -0 0 1 1 1 1
-6 -5 -6 -5 -6 -5 -5 -5 -6 -5 -5 -5 -5 -5 -5 -5 -5 -4 -4 -4 -4 -5 -5 -5 -5 -4 -4 -4 -3 -3 -3 -2 -2 -2 -2 -1 -1 -1 -1 -0 0 0 0 0
-6 -6 -6 -6 -5 -6 -5 -5 -5 -5 -6 -5 -6 -6 -6 -6 -5 -5 -4 -5 -5 -5 -5 -5 -5 -5 -4 -4 -4 -3 -3 -3 -3 -3 -2 -2 -2 -2 -1 -1 -1 -0 -0 -0
-7 -7 -7 -7 -6 -6 -6 -6 -5 -6 -6 -5 -6 -6 -6 -6 -6 -5 -5 -5 -5 -5 -5 -5 -5 -5 -5 -4 -4 -4 -4 -4 -4 -3 -3 -2 -2 -2 -2 -2 -1 -1 -1 -1
-8 -8 -7 -7 -7 -7 -6 -6 -7 -7 -6 -6 -6 -6 -6 -6 -6 -6 -6 -6 -6 -6 -5 -5 -5 -5 -5 -5 -4 -4 -4 -4 -4 -4 -3 -3 -3 -2 -2 -2 -2 -1 -1 -1
-9 -9 -9 -8 -7 -7 -6 -7 -6 -6 -7 -7 -7 -7 -7 -7 -6 -6 -6 -6 -6 -6 -6 -6 -6 -6 -5 -5 -5 -5 -5 -5 -4 -4 -4 -3 -3 -3 -2 -2 -2 -2 -2 -2
-9 -9 -9 -9 -8 -7 -7 -7 -7 -7 -7 -7 -7 -7 -7 -7 -7 -7 -7 -7 -7 -7 -6 -6 -6 -6 -6 -5 -5 -5 -5 -5 -5 -5 -4 -4 -4 -3 -3 -3 -3 -3 -2 -2
-10 -10 -9 -9 -9 -8 -7 -7 -7 -7 -7 -7 -7 -7 -7 -7 -7 -7 -7 -7 -7 -7 -7 -7 -7 -6 -6 -6 -6 -6 -6 -6 -5 -5 -5 -5 -4 -4 -4 -3 -3 -3 -3 -3
-10 -10 -10 -9 -8 -8 -7 -7 -7 -8 -8 -8 -8 -8 -8 -8 -8 -8 -8 -8 -8 -8 -7 -7 -7 -7 -7 -6 -6 -6 -6 -6 -6 -6 -5 -5 -5 -5 -5 -4 -4 -4 -4 -4
Wind_Speed
1 1 4 8 8 5 3 4 5 5 3 3 5 4 3 1 3 2 1 1 1 1 1 2 2 3 3 3 3 3 3 4 4 3 3 3 2 2 2 2 4 5 6 7
2 4 5 3 3 3 3 5 5 3 1 3 2 3 2 1 2 2 1 1 1 2 3 3 3 3 2 2 2 2 3 3 4 3 2 2 2 2 1 2 3 4 5 6
4 4 3 1 2 3 5 5 5 4 1 1 1 3 1 1 2 4 3 2 2 1 1 2 2 2 2 1 1 1 2 2 3 3 3 3 3 2 1 1 1 2 5 6
3 4 2 1 2 3 7 4 3 3 1 2 2 3 2 1 2 4 4 4 3 3 2 1 1 2 1 1 1 1 1 2 2 3 4 4 3 2 3 2 2 2 4 5
3 2 2 2 4 3 4 3 3 3 3 2 2 3 3 1 1 3 4 4 4 3 2 1 1 1 1 2 1 1 1 1 2 3 4 4 3 2 1 1 2 2 2 3
3 2 1 3 4 3 2 1 1 1 2 4 4 4 3 1 2 3 3 4 4 4 3 3 3 3 3 3 3 2 2 1 1 2 3 4 4 3 3 3 3 2 2 2
5 3 3 2 3 2 2 2 1 1 1 4 3 3 2 2 2 1 2 4 4 4 3 3 4 4 3 3 3 3 2 2 1 1 2 3 4 4 4 4 4 3 2 3
4 5 4 4 1 2 2 3 3 3 3 2 2 3 1 3 4 4 3 4 5 5 5 4 4 3 3 3 3 2 2 2 1 0 1 2 2 2 2 3 3 3 3 3
3 5 5 5 4 1 0 1 1 2 0 0 1 1 3 5 7 8 7 6 6 6 6 6 5 5 4 3 3 2 2 2 2 1 1 1 2 2 2 2 2 2 2 2
1 4 6 6 4 5 1 1 2 2 2 2 1 1 2 5 6 7 7 6 6 6 6 6 6 6 5 4 4 3 3 2 2 2 1 1 1 1 2 2 3 3 3 2
1 1 5 4 4 5 4 2 0 1 1 2 1 2 2 2 3 4 5 5 5 5 5 5 6 5 5 5 4 4 3 3 3 2 1 1 1 1 1 2 3 3 3 3
2 1 3 3 2 3 3 2 1 2 1 1 2 2 4 3 4 4 5 6 5 5 5 5 5 6 6 5 5 4 4 3 3 3 2 1 1 1 1 2 2 3 3 3
2 2 3 5 4 7 6 6 3 2 2 1 2 3 4 6 7 6 6 6 6 6 6 6 6 6 6 6 5 5 5 4 4 3 2 2 1 1 2 2 2 2 3 3
3 2 2 2 2 3 5 7 6 4 2 0 2 3 6 7 8 8 7 6 6 6 6 6 6 6 6 6 6 5 5 5 4 4 3 2 2 2 2 3 3 3 3 4
3 1 1 0 1 2 4 6 5 4 1 2 3 3 6 6 6 6 7 7 7 7 7 7 6 6 6 6 6 6 5 5 4 4 3 3 3 3 3 3 3 3 3 4
3 0 1 2 1 2 5 7 5 3 2 1 2 4 5 6 5 6 7 7 7 7 7 7 7 7 7 7 6 6 6 5 4 4 3 3 3 3 3 3 3 3 3 3
2 1 1 2 4 3 4 5 3 2 3 1 2 4 5 6 7 6 6 6 7 7 6 7 7 6 7 6 6 6 6 5 5 4 4 4 3 4 4 3 2 2 3 3
1 0 1 1 4 1 3 1 2 2 3 2 3 5 6 6 7 6 5 5 7 6 6 6 6 6 6 6 6 6 5 5 5 5 4 4 4 4 4 3 3 3 2 2
1 2 1 1 0 3 3 3 3 2 4 3 4 7 8 7 5 4 5 4 5 6 6 5 5 5 5 6 6 5 5 6 6 6 5 5 4 4 4 3 3 3 2 2
4 3 2 1 1 2 4 5 5 0 3 4 5 8 8 7 5 6 7 7 6 6 5 5 5 5 5 6 5 5 5 5 6 6 6 5 4 4 4 4 3 2 2 1
3 3 2 1 1 3 4 7 3 2 4 7 6 7 6 4 5 7 8 7 6 6 6 5 4 4 5 5 5 5 5 6 6 6 6 5 5 4 3 2 2 1 1 0
0 1 0 1 1 4 4 3 1 4 6 6 7 6 6 7 8 8 8 8 8 8 7 5 4 5 5 5 5 6 6 7 6 6 6 6 5 4 3 1 1 1 1 1
1 2 2 3 4 3 2 2 3 3 5 6 6 7 7 7 8 9 8 8 7 7 7 5 5 5 5 5 4 5 7 7 6 6 6 6 6 4 3 2 1 1 1 1
3 1 1 2 4 5 5 4 5 4 5 6 6 7 6 7 8 8 8 8 7 7 6 6 5 6 6 6 6 5 6 6 5 6 6 5 5 5 4 3 2 1 0 1
3 1 1 3 5 6 4 4 6 6 6 7 7 6 6 6 8 8 7 7 7 8 6 6 5 6 6 7 6 6 6 5 5 5 5 5 5 5 4 3 2 2 1 1
1 2 2 4 5 4 7 6 6 6 7 8 8 8 7 6 7 7 7 6 6 7 6 6 6 6 6 6 7 6 6 5 5 5 5 4 4 4 4 3 4 5 4 4
Wind_Direction
14 109 224 224 217 231 221 226 248 251 225 197 220 249 278 343 72 64 32 26 296 258 328 43 61 74 75 78 100 124 132 137 136 135 140 137 143 142 141 147 158 162 162 160
37 249 252 251 242 249 251 250 242 264 197 203 223 254 270 123 118 120 86 30 347 349 6 22 40 52 73 88 96 122 141 147 155 156 151 143 135 136 144 140 144 162 167 168
214 257 282 256 257 250 255 231 228 233 322 204 180 285 278 312 57 46 41 34 20 11 334 355 26 37 47 55 109 148 154 150 153 144 124 104 85 75 90 140 169 172 174 174
262 293 328 285 261 243 253 244 231 227 209 257 190 249 274 275 17 18 4 0 349 336 336 359 17 22 12 338 19 106 131 143 146 142 153 159 167 180 194 189 189 173 177 178
291 307 301 259 270 260 252 272 238 216 202 245 224 214 292 26 349 327 332 339 341 338 331 337 340 342 1 10 33 67 111 120 139 153 166 171 178 181 160 149 171 188 182 184
297 324 312 277 288 241 281 20 65 102 151 235 223 185 296 344 292 318 334 346 351 353 358 7 12 31 26 25 33 40 65 70 127 159 174 180 181 173 166 180 190 200 195 187
329 331 353 354 348 358 57 84 31 338 223 239 158 156 249 325 13 9 347 351 358 5 15 21 24 25 20 21 23 27 42 32 43 153 188 194 191 185 191 199 201 203 203 205
339 317 345 356 318 256 250 168 180 214 216 266 144 194 236 1 16 16 24 27 19 14 10 10 16 20 19 14 17 24 24 15 13 16 223 203 187 186 200 204 205 209 215 218
333 299 338 354 354 88 314 230 210 150 61 210 229 316 330 1 12 13 17 21 15 8 8 6 10 12 14 7 1 4 9 3 357 344 306 215 191 191 196 201 205 213 214 211
300 295 320 334 9 22 102 154 85 151 178 222 276 305 315 340 345 355 2 2 1 5 5 7 8 6 3 0 358 10 10 351 342 344 329 293 248 215 201 193 203 210 208 206
11 311 321 2 23 355 15 31 84 155 166 174 216 281 337 309 322 334 344 356 358 357 359 2 3 1 3 7 8 7 5 356 350 341 332 324 289 247 216 213 216 216 213 208
350 84 296 289 335 13 47 40 79 153 247 155 153 275 352 8 5 0 352 357 357 3 6 5 2 4 7 7 4 359 353 348 341 333 323 301 291 263 237 246 240 216 216 215
15 45 351 349 4 18 22 20 28 99 101 118 164 271 350 16 12 7 4 360 358 5 7 8 6 2 358 357 355 352 348 343 338 330 316 307 306 281 262 255 252 235 225 222
46 65 125 188 285 349 355 11 31 76 115 182 226 273 325 354 356 354 356 354 355 1 2 3 0 355 353 352 348 344 346 343 338 332 322 310 298 279 268 259 248 242 231 229
49 69 129 177 345 40 27 11 31 63 132 203 260 289 311 333 337 340 348 351 354 353 354 354 352 350 350 349 346 343 341 341 339 335 326 315 312 301 288 274 257 244 235 232
26 323 340 322 334 40 26 6 6 17 9 308 313 310 328 330 347 351 346 346 345 341 341 343 346 346 345 341 339 339 337 332 335 333 324 322 318 311 295 283 261 246 237 231
349 31 10 304 326 1 355 341 350 10 7 340 292 290 322 334 339 335 329 329 328 325 328 331 333 332 331 331 332 332 330 330 333 333 334 330 320 309 300 295 280 259 246 232
221 126 169 329 21 309 262 307 336 329 349 5 338 324 326 316 310 306 312 317 319 322 321 322 326 328 329 331 335 336 339 341 340 336 336 333 322 311 306 302 289 271 250 229
171 147 102 83 354 285 314 336 347 302 307 341 330 325 328 327 318 316 323 320 310 312 313 315 318 319 324 333 337 341 345 346 344 338 332 326 322 314 310 304 292 279 257 239
37 65 97 94 116 271 288 308 315 246 318 343 336 322 328 343 333 317 329 328 325 325 323 324 328 334 336 336 339 346 344 343 335 328 322 322 318 310 301 289 282 279 262 250
9 25 62 143 219 273 294 312 351 94 291 321 320 313 318 312 286 301 319 324 329 331 331 332 335 341 337 336 343 343 341 332 324 325 328 330 325 314 302 292 287 273 247 210
321 2 319 126 196 272 324 19 60 265 299 316 317 319 317 306 307 316 323 329 335 338 342 348 347 340 338 341 344 340 333 327 330 334 336 338 336 331 326 331 330 348 139 147
212 207 208 197 219 264 306 263 284 300 304 310 314 313 313 313 318 324 328 331 333 337 339 343 342 336 336 339 340 334 328 335 339 342 343 342 343 347 346 5 15 23 96 152
311 314 202 274 277 285 300 308 321 318 305 305 306 308 313 313 318 323 327 332 335 337 338 340 340 338 334 335 337 333 333 337 342 343 343 344 350 351 356 359 4 12 27 207
272 282 273 275 293 312 309 311 313 319 319 318 319 317 316 316 318 321 323 329 334 336 338 340 339 333 328 330 334 340 340 341 341 343 345 345 347 347 349 356 356 338 319 279
240 198 210 252 267 267 285 298 313 317 319 321 325 328 331 325 316 320 322 326 331 334 338 340 341 338 335 337 338 340 340 341 341 343 345 345 345 347 352 356 359 2 1 358
Height
1470 1473 1473 1472 1472 1473 1475 1476 1477 1475 1473 1474 1475 1475 1475 1474 1474 1475 1476 1476 1477 1479 1480 1482 1483 1485 1487 1489 1492 1494 1497 1499 1502 1504 1506 1508 1511 1513 1516 1518 1520 1522 1523 1525
1473 1473 1471 1470 1471 1472 1474 1475 1476 1474 1472 1474 1475 1476 1474 1473 1474 1475 1475 1476 1477 1477 1478 1479 1481 1483 1485 1487 1489 1492 1494 1497 1499 1501 1504 1506 1508 1510 1513 1515 1517 1519 1521 1523
1474 1472 1470 1470 1471 1472 1471 1473 1474 1473 1473 1472 1474 1475 1475 1474 1474 1474 1475 1475 1476 1476 1477 1477 1479 1480 1482 1484 1487 1489 1491 1494 1496 1499 1501 1503 1505 1508 1510 1512 1514 1516 1518 1520
1474 1471 1470 1470 1471 1471 1471 1469 1470 1471 1474 1476 1475 1478 1476 1474 1474 1474 1475 1475 1475 1476 1476 1476 1477 1478 1480 1482 1485 1487 1489 1491 1493 1496 1498 1500 1502 1504 1506 1509 1511 1513 1515 1516
1475 1472 1471 1471 1471 1471 1470 1469 1469 1471 1474 1478 1477 1478 1478 1475 1476 1475 1475 1475 1474 1475 1475 1475 1476 1477 1479 1480 1482 1484 1486 1488 1490 1493 1495 1497 1499 1501 1503 1506 1507 1509 1511 1513
1476 1473 1473 1472 1470 1470 1470 1471 1471 1473 1476 1478 1476 1480 1481 1480 1478 1476 1475 1474 1474 1474 1474 1474 1475 1476 1477 1478 1480 1481 1483 1485 1487 1489 1491 1493 1495 1497 1500 1502 1504 1506 1508 1510
1478 1475 1474 1472 1472 1471 1472 1474 1479 1481 1481 1477 1475 1479 1482 1479 1477 1476 1476 1475 1474 1474 1473 1473 1473 1474 1475 1476 1477 1479 1481 1482 1484 1486 1488 1490 1492 1494 1496 1498 1500 1502 1504 1506
1487 1482 1477 1475 1475 1475 1474 1475 1480 1482 1481 1479 1477 1481 1483 1479 1477 1476 1476 1475 1474 1474 1473 1473 1473 1473 1474 1475 1476 1477 1478 1480 1481 1483 1485 1487 1488 1490 1492 1494 1496 1498 1500 1502
1492 1486 1479 1477 1476 1476 1476 1477 1477 1483 1485 1485 1483 1486 1483 1479 1477 1476 1475 1474 1474 1474 1473 1473 1473 1473 1473 1474 1475 1475 1476 1477 1479 1480 1482 1483 1485 1487 1488 1490 1492 1494 1496 1498
1494 1492 1484 1481 1477 1477 1478 1479 1482 1483 1484 1484 1484 1487 1488 1484 1481 1479 1477 1476 1475 1475 1474 1473 1472 1472 1473 1473 1474 1474 1475 1476 1476 1477 1479 1480 1482 1483 1485 1487 1488 1490 1492 1494
1495 1496 1491 1485 1484 1484 1482 1482 1482 1484 1483 1486 1490 1493 1487 1485 1483 1481 1479 1478 1477 1476 1475 1474 1473 1473 1472 1472 1473 1473 1473 1474 1474 1475 1476 1477 1478 1480 1482 1483 1484 1486 1487 1489
1496 1499 1497 1491 1488 1487 1486 1487 1487 1488 1490 1490 1493 1496 1487 1486 1484 1483 1481 1480 1478 1477 1476 1475 1474 1473 1472 1471 1471 1471 1472 1472 1472 1473 1474 1474 1475 1477 1478 1479 1480 1482 1483 1485
1497 1501 1501 1495 1494 1492 1491 1490 1489 1491 1494 1497 1498 1497 1488 1487 1485 1484 1482 1481 1479 1477 1476 1474 1473 1472 1471 1471 1470 1470 1470 1470 1470 1471 1471 1472 1472 1473 1474 1475 1477 1478 1479 1480
1498 1503 1504 1505 1502 1499 1498 1494 1493 1494 1499 1501 1499 1496 1491 1488 1487 1485 1483 1481 1479 1478 1476 1475 1474 1472 1471 1470 1470 1469 1468 1468 1468 1468 1468 1469 1469 1470 1471 1472 1473 1474 1475 1476
1501 1506 1504 1502 1500 1500 1499 1498 1496 1497 1499 1500 1497 1495 1493 1491 1490 1487 1485 1482 1480 1478 1477 1475 1473 1472 1471 1470 1469 1468 1467 1467 1466 1466 1466 1466 1466 1467 1467 1468 1468 1469 1470 1472
1505 1507 1505 1503 1499 1499 1499 1500 1499 1498 1499 1499 1497 1497 1494 1492 1490 1487 1485 1483 1481 1479 1477 1475 1473 1471 1470 1469 1468 1466 1465 1464 1464 1463 1463 1463 1463 1463 1464 1464 1465 1465 1466 1467
1508 1508 1507 1506 1503 1500 1505 1506 1504 1502 1502 1501 1500 1499 1495 1493 1490 1488 1486 1484 1482 1479 1477 1475 1473 1471 1470 1468 1466 1465 1463 1462 1461 1461 1460 1460 1460 1460 1460 1460 1461 1461 1462 1463
1509 1509 1509 1508 1508 1513 1511 1505 1504 1503 1502 1501 1499 1497 1495 1493 1490 1488 1486 1484 1481 1479 1477 1474 1472 1470 1469 1467 1465 1464 1462 1460 1459 1458 1457 1457 1456 1456 1456 1456 1457 1457 1458 1458
1507 1508 1511 1512 1515 1511 1508 1505 1506 1506 1504 1501 1500 1497 1494 1492 1488 1486 1485 1483 1481 1478 1476 1474 1471 1470 1468 1466 1464 1462 1460 1459 1457 1456 1455 1454 1454 1453 1452 1452 1452 1453 1454 1454
1509 1510 1514 1515 1515 1515 1512 1506 1504 1505 1504 1501 1499 1497 1494 1491 1489 1486 1484 1481 1479 1477 1474 1472 1470 1468 1466 1464 1463 1460 1458 1457 1456 1454 1453 1452 1451 1450 1449 1449 1449 1449 1450 1451
1517 1517 1518 1518 1518 1514 1511 1506 1504 1510 1509 1502 1499 1497 1494 1492 1491 1487 1483 1480 1477 1475 1472 1469 1467 1466 1464 1463 1461 1459 1457 1455 1454 1452 1451 1449 1448 1447 1446 1445 1446 1446 1446 1447
1522 1521 1520 1519 1521 1519 1510 1507 1509 1509 1504 1501 1499 1496 1494 1491 1488 1485 1481 1478 1475 1472 1469 1467 1465 1464 1463 1461 1459 1457 1455 1454 1452 1450 1448 1447 1445 1444 1443 1442 1442 1443 1443 1443
1522 1521 1520 1520 1519 1512 1510 1509 1508 1506 1503 1500 1498 1495 1493 1489 1486 1483 1480 1477 1474 1471 1468 1466 1464 1463 1462 1460 1458 1456 1454 1452 1450 1448 1446 1445 1444 1442 1441 1440 1440 1440 1440 1441
1520 1518 1518 1517 1512 1510 1509 1507 1505 1504 1501 1499 1496 1493 1490 1487 1484 1481 1478 1475 1473 1470 1467 1465 1464 1462 1460 1459 1457 1455 1453 1451 1449 1447 1445 1444 1442 1441 1440 1439 1439 1438 1438 1438
1520 1518 1517 1515 1511 1508 1506 1505 1504 1501 1499 1497 1494 1492 1489 1486 1483 1480 1477 1474 1472 1469 1467 1465 1463 1461 1459 1457 1456 1454 1452 1450 1448 1446 1444 1443 1441 1440 1439 1438 1438 1437 1437 1437
1517 1517 1517 1514 1511 1510 1506 1504 1502 1499 1497 1494 1492 1489 1487 1485 1481 1479 1476 1473 1470 1468 1466 1464 1461 1460 1458 1456 1454 1452 1451 1449 1446 1444 1443 1442 1440 1439 1438 1437 1436 1436 1436 1436